Preview of NWS' New Version of Forecast
This preview is not operational and should not be used for support decisions.

Regional Weather Roundup (RWR)

Issued by National Weather Service (NWS)

                            
000
ASUS45 KABQ 180910
RWRNM 
NEW MEXICO REGIONAL WEATHER ROUNDUP
NATIONAL WEATHER SERVICE ALBUQUERQUE NM
300 AM MDT THU APR 18 2019

NOTE: "FAIR" MEANS FEW OR NO CLOUDS BELOW 12,000 FEET AGL WITH NO
       SIGNIFICANT WEATHER OR OBSTRUCTIONS TO VISION.

      THIS PRODUCT IS RELEASED AS TWO VERSIONS.  ONE VERSION NEAR
      THE TOP OF THE HOUR CONTAINING PRELIMINARY DATA FROM ALBUQUERQUE
      AND OTHER STATIONS.  A FINAL VERSION WITH ADDITIONAL DATA IS 
      ISSUED ABOUT 10 MINUTES AFTER THE HOUR.
 
NMZ501-503-504-510>518-181000-
NORTHWEST PLATEAU/NORTHCENTRAL MOUNTAINS
  
CITY           SKY/WX    TMP DP  RH WIND       PRES   REMARKS
FARMINGTON     FAIR      48  24  39 W16       30.06R                  
LOS ALAMOS       N/A     39  39 100 SE3       30.08F                  
SANTA FE       FOG       35  34  96 N10       30.06R VSB 3/4 WCI  27  
TAOS           FAIR      28  27  96 N7        30.12S WCI  21          
ANGEL FIRE     FOG       32  31  98 E3        30.13S VSB 1/4          

$$
NMZ402-403-502-505>509-181000-
WESTCENTRAL MOUNTAINS/SOUTHWEST MOUNTAINS
  
CITY           SKY/WX    TMP DP  RH WIND       PRES   REMARKS
GALLUP         FAIR      35  28  75 W3        30.15S                  
GRANTS         FAIR      40  29  66 NW9       30.15S WCI  34          
SILVER CITY    FAIR      43  39  86 NW8       30.11S                  

$$
NMZ407-409-411-412-181000-
SOUTHERN DESERTS
  
CITY           SKY/WX    TMP DP  RH WIND       PRES   REMARKS
DEMING         FAIR      47  41  80 SW7       30.07S                  
LAS CRUCES     FAIR      47  42  80 W10       30.04S                  
HOLLOMAN AFB   FAIR      44  42  92 N7        30.03F                  
ALAMOGORDO     FAIR      45  43  93 N7        30.02F                  
T OR C         FAIR      44  41  89 CALM      30.04S                  

$$
NMZ519>523-181000-
CENTRAL VALLEYS/CENTRAL HIGHLANDS
  
CITY           SKY/WX    TMP DP  RH WIND       PRES   REMARKS
ALBUQUERQUE    FAIR      45  42  89 CALM      30.05F                  
DOUBLE EAGLE   FOG       37  37  99 CALM      30.06F VSB 1/4          
MORIARTY ARPT  SNOW      40  40 100 N6        30.06S VSB 1/4          
CLINES CORNERS FAIR      38  35  89 N10       30.06F WCI  31          
BELEN          FOG       41  41 100 CALM      30.05F VSB 1/2          
SOCORRO        FAIR      41  40  95 SE6       30.04F FOG              

$$
NMZ524>526-539-540-181000-
SOUTHCENTRAL MOUNTAINS
  
CITY           SKY/WX    TMP DP  RH WIND       PRES   REMARKS
RUIDOSO        FAIR      43  36  75 NW10G18   30.08R                  

$$
NMZ527>531-181000-
NORTHEAST HIGHLANDS/NORTHEAST PLAINS
  
CITY           SKY/WX    TMP DP  RH WIND       PRES   REMARKS
LAS VEGAS      FAIR      36  33  89 N5        30.05R WCI  32          
RATON          CLOUDY    36  33  89 NE6       30.04R WCI  31          
CLAYTON        CLOUDY    44  35  70 N12       29.99R                  

$$
NMZ532>537-181000-
EASTCENTRAL PLAINS
  
CITY           SKY/WX    TMP DP  RH WIND       PRES   REMARKS
SANTA ROSA     FAIR      43  38  85 N5        29.99S                  
TUCUMCARI      FAIR      47  41  80 N13       29.93S                  
CANNON AFB     FAIR      47  42  81 N17G25    29.93S                  
CLOVIS AIRPORT FAIR      46  43  89 NW14      29.94R                  

$$
NMZ028-029-538-181000-
SOUTHEAST PLAINS
  
CITY           SKY/WX    TMP DP  RH WIND       PRES   REMARKS
ROSWELL        FAIR      50  41  71 N9        29.92R                  
ARTESIA        FAIR      54  39  58 NE8G15    29.93R                  
CARLSBAD       FAIR      56  38  50 NW8       29.90S                  
HOBBS          FAIR      54  41  62 NW17G23   29.90R                  


$$